User: anonymous   Login
Location: UBC Liquid-Mirror Observatory
(49.2876°N, 122.5728°W)
Time: 00:35:50
(UTC-07:00)
Language:

KITSAT 1 - Orbit

View from above orbital plane
View from above orbital plane
View from above satellite
View from above satellite

Ground track
Ground track

The orbit data is extracted from the following two-line orbital elements,

1 22077U 92052B   17230.94756457 -.00000075 +00000-0 -52547-4 0  9997
2 22077 066.0834 195.0921 0012147 309.5147 113.6830 12.86519355175097
Epoch (UTC): 18 August 2017 22:44:29
Eccentricity: 0.0012147
inclination: 66.0834°
perigee height: 1306 km
apogee height: 1325 km
right ascension of ascending node: 195.0921°
argument of perigee: 309.5147°
revolutions per day: 12.86519355
mean anomaly at epoch: 113.6830°
orbit number at epoch: 17509

The dashed part of the orbit path shows where the satellite is in the earth's shadow,  

DLR